When you browse on this site, cookies collect data to enhance your experience and personalize the content and advertising you see.
Visit our Privacy Policy to learn more. By continuing to use the site, you agree to this use of cookies and data.
  • In United Kingdom
  • List of Countries
  • For 7 days
  • Water Temperature
  • Satellite Maps
  • Weather Map
  • Weather Widgets
  • user-avatar
    Login

    Hourly Weather Kosiv

    Today, 21 November, Wednesday

    Time Temperature Precipitation Wind Pressure Humidity
    00:00 -5°C° 0 mm 4 mps 732 mmHg 100%
    01:00 -7°C° 0 mm 4 mps 732 mmHg 100%
    02:00 -4°C° 0 mm 2 mps 732 mmHg 100%
    03:00 -3°C° 0 mm 2 mps 732 mmHg 100%
    04:00 -4°C° 0 mm 3 mps 732 mmHg 100%
    05:00 -4°C° 0 mm 3 mps 732 mmHg 100%
    06:00 -4°C° 0.1 mm 3 mps 732 mmHg 100%
    07:00 -4°C° 0.2 mm 3 mps 732 mmHg 100%
    08:00 -5°C° 0 mm 3 mps 732 mmHg 100%
    09:00 -5°C° 0.1 mm 4 mps 732 mmHg 100%
    10:00 -4°C° 0.5 mm 3 mps 732 mmHg 100%
    11:00 -4°C° 0.5 mm 3 mps 733 mmHg 100%
    12:00 -4°C° 0.4 mm 3 mps 733 mmHg 100%
    13:00 -4°C° 0.3 mm 3 mps 733 mmHg 100%
    14:00 -2°C° 0 mm 2 mps 732 mmHg 100%
    15:00 -2°C° 0 mm 4 mps 732 mmHg 100%
    16:00 -3°C° 0.2 mm 4 mps 732 mmHg 100%
    17:00 -4°C° 0.1 mm 3 mps 733 mmHg 100%
    18:00 -4°C° 0.1 mm 3 mps 733 mmHg 100%
    19:00 -4°C° 0 mm 3 mps 733 mmHg 100%
    20:00 -4°C° 0.1 mm 2 mps 733 mmHg 100%
    21:00 -4°C° 0.1 mm 2 mps 733 mmHg 100%
    22:00 -4°C° 0.1 mm 2 mps 734 mmHg 100%
    23:00 -4°C° 0.2 mm 2 mps 734 mmHg 100%

    Tomorrow, 22 November, Thursday

    Time Temperature Precipitation Wind Pressure Humidity
    00:00 -4°C° 0.1 mm 2 mps 734 mmHg 100%
    01:00 -4°C° 0.1 mm 2 mps 734 mmHg 100%
    02:00 -2°C° 0 mm 1 mps 734 mmHg 100%
    03:00 -2°C° 0 mm 1 mps 734 mmHg 100%
    04:00 -2°C° 0 mm 1 mps 734 mmHg 100%
    05:00 -4°C° 0 mm 2 mps 734 mmHg 100%
    06:00 -2°C° 0 mm 1 mps 734 mmHg 100%
    07:00 -2°C° 0 mm 1 mps 734 mmHg 100%
    08:00 -2°C° 0 mm 1 mps 734 mmHg 100%
    09:00 -2°C° 0 mm 1 mps 735 mmHg 100%
    10:00 -2°C° 0 mm 1 mps 735 mmHg 100%
    11:00 -2°C° 0 mm 1 mps 735 mmHg 100%
    12:00 -2°C° 0 mm 1 mps 735 mmHg 100%
    13:00 -1°C° 0 mm 1 mps 735 mmHg 100%
    14:00 -1°C° 0 mm 1 mps 735 mmHg 100%
    15:00 -2°C° 0 mm 1 mps 735 mmHg 100%
    16:00 -2°C° 0 mm 1 mps 735 mmHg 100%
    17:00 -2°C° 0 mm 1 mps 735 mmHg 100%
    18:00 -4°C° 0 mm 0 mps 735 mmHg 100%
    19:00 -4°C° 0 mm 0 mps 735 mmHg 100%
    20:00 -4°C° 0 mm 0 mps 735 mmHg 100%
    21:00 -4°C° 0 mm 0 mps 735 mmHg 100%
    22:00 -4°C° 0 mm 0 mps 735 mmHg 100%
    23:00 -4°C° 0 mm 0 mps 736 mmHg 100%

    Day after tomorrow, 23 November, Friday

    Time Temperature Precipitation Wind Pressure Humidity
    00:00 -4°C° 0 mm 0 mps 736 mmHg 100%
    01:00 -4°C° 0 mm 0 mps 736 mmHg 100%
    02:00 -5°C° 0 mm 0 mps 736 mmHg 100%
    03:00 -4°C° 0 mm 0 mps 736 mmHg 100%
    04:00 -3°C° 0 mm 0 mps 736 mmHg 100%
    05:00 -3°C° 0 mm 0 mps 736 mmHg 100%
    06:00 -3°C° 0 mm 0 mps 736 mmHg 100%
    07:00 -3°C° 0 mm 0 mps 737 mmHg 100%
    08:00 -2°C° 0 mm 0 mps 737 mmHg 99%
    09:00 -1°C° 0 mm 0 mps 737 mmHg 97%
    10:00 -1°C° 0 mm 0 mps 738 mmHg 99%
    11:00 -1°C° 0 mm 0 mps 738 mmHg 100%
    12:00 0°C° 0 mm 0 mps 738 mmHg 100%
    13:00 +1°C° 0 mm 1 mps 738 mmHg 100%
    14:00 +1°C° 0 mm 1 mps 738 mmHg 100%
    15:00 0°C° 0 mm 1 mps 738 mmHg 100%
    16:00 0°C° 0 mm 1 mps 738 mmHg 100%
    17:00 0°C° 0 mm 1 mps 738 mmHg 100%
    18:00 0°C° 0 mm 1 mps 738 mmHg 100%
    19:00 -1°C° 0 mm 1 mps 737 mmHg 100%
    20:00 -1°C° 0 mm 1 mps 737 mmHg 100%
    21:00 -2°C° 0 mm 1 mps 737 mmHg 100%
    22:00 -2°C° 0 mm 1 mps 737 mmHg 100%
    23:00 -2°C° 0 mm 1 mps 737 mmHg 100%

    24 November, Saturday

    Time Temperature Precipitation Wind Pressure Humidity
    00:00 -2°C° 0 mm 1 mps 736 mmHg 100%
    01:00 -3°C° 0 mm 1 mps 736 mmHg 100%
    02:00 -3°C° 0 mm 1 mps 735 mmHg 100%
    03:00 -3°C° 0 mm 1 mps 735 mmHg 99%
    04:00 -3°C° 0 mm 1 mps 734 mmHg 99%
    05:00 -4°C° 0 mm 1 mps 734 mmHg 99%
    06:00 -4°C° 0 mm 1 mps 733 mmHg 99%
    07:00 -4°C° 0 mm 1 mps 733 mmHg 99%
    08:00 -4°C° 0 mm 1 mps 733 mmHg 97%
    09:00 -4°C° 0 mm 1 mps 733 mmHg 96%
    10:00 -3°C° 0 mm 1 mps 733 mmHg 94%
    11:00 -2°C° 0 mm 1 mps 732 mmHg 94%
    12:00 -1°C° 0 mm 1 mps 732 mmHg 97%
    13:00 0°C° 0 mm 0 mps 732 mmHg 98%
    14:00 +1°C° 0 mm 1 mps 731 mmHg 98%
    15:00 +1°C° 0 mm 1 mps 731 mmHg 97%
    16:00 +1°C° 0 mm 1 mps 730 mmHg 95%
    17:00 +1°C° 0 mm 1 mps 730 mmHg 92%
    18:00 +1°C° 0 mm 1 mps 730 mmHg 89%
    19:00 +1°C° 0 mm 1 mps 730 mmHg 86%
    20:00 +2°C° 0 mm 1 mps 730 mmHg 83%
    21:00 +2°C° 0 mm 1 mps 729 mmHg 81%
    22:00 +3°C° 0 mm 1 mps 729 mmHg 77%
    23:00 +3°C° 0 mm 2 mps 729 mmHg 74%

    25 November, Sunday

    Time Temperature Precipitation Wind Pressure Humidity
    00:00 +4°C° 0 mm 2 mps 729 mmHg 75%
    01:00 +4°C° 0 mm 2 mps 728 mmHg 76%
    02:00 +5°C° 0 mm 1 mps 728 mmHg 79%
    03:00 +4°C° 0 mm 1 mps 728 mmHg 82%
    04:00 +4°C° 0 mm 1 mps 727 mmHg 85%
    05:00 +3°C° 0 mm 2 mps 727 mmHg 86%
    06:00 +2°C° 0 mm 3 mps 726 mmHg 88%
    07:00 +3°C° 0 mm 3 mps 726 mmHg 89%
    08:00 +4°C° 0 mm 2 mps 726 mmHg 90%
    09:00 +5°C° 0 mm 1 mps 726 mmHg 92%
    10:00 +5°C° 0 mm 1 mps 726 mmHg 94%
    11:00 +6°C° 0 mm 1 mps 725 mmHg 95%
    12:00 +6°C° 0 mm 1 mps 726 mmHg 95%
    13:00 +6°C° 0 mm 0 mps 725 mmHg 95%
    14:00 +6°C° 0 mm 0 mps 725 mmHg 93%

    26 November, Monday

    Time Temperature Precipitation Wind Pressure Humidity
    Show more